[[{"header":{"parameterUnit":"m.s-1","parameterCategory":1,"la1":30.2991,"la2":30.254,"lo1":-89.0895,"lo2":-89.0444,"dy":0.0017,"dx":0.0017,"nx":28,"ny":28,"refTime":"2025-11-25T09:00:00:Z","depth":0,"parameterNumber":2,"parameterNumberName":"U-component_of_WINDS"},"data":[0,0,0,0,0,0,0,0,0,0,0,0,0,0,0,0,0,0,0,0,0,0,0,0,0,0,0,0,0,0,0,0,0,0,0,0,0,0,0,0,0,0,0,0,0,0,0,0,0,0,0,0,0,0,0,0,0,0,2.1565,2.1566,0,2.1641,2.1642,2.1643,2.1645,2.1644,2.1643,2.1643,2.1722,2.1725,2.1728,0,0,0,0,0,0,0,0,0,0,0,0,0,2.1426,2.1429,2.1565,2.1566,2.1567,2.1641,2.1642,2.1643,2.1645,2.1644,2.1643,2.1642,2.1721,2.1725,2.1729,0,0,0,0,0,0,0,0,0,0,0,0,0,2.1493,2.143,2.1565,2.1577,2.1579,2.1641,2.1642,2.1643,2.1646,2.1644,2.1643,2.1642,2.172,2.1725,2.1729,2.1785,0,0,2.1743,2.1745,0,0,0,0,0,0,0,0,2.1489,2.1498,2.1574,2.1576,2.1578,2.1632,2.1622,2.1691,2.1646,2.162,2.1642,2.1641,2.1694,2.17,2.1718,2.1789,2.1792,2.1743,2.1746,2.1748,2.1749,0,0,0,0,0,0,0,2.1484,2.1495,2.1595,2.1575,2.1578,2.158,2.1588,2.1635,2.1664,2.1622,2.1623,2.1632,2.1695,2.1713,2.172,2.1793,2.1743,2.1747,2.175,2.1752,2.1918,2.192,0,0,0,0,0,0,2.1477,2.1491,2.1593,2.1598,2.1529,2.1584,2.1593,2.1616,2.1663,2.1669,2.1633,2.1632,2.1706,2.1714,2.1722,2.1793,2.1748,2.1752,2.1755,2.1916,2.1918,2.192,0,0,0,0,0,0,2.1474,2.1486,2.159,2.1544,2.1558,2.1588,2.1614,2.1619,2.1637,2.1671,2.1677,2.1646,2.1706,2.1716,2.177,2.1796,2.1754,2.1758,2.1914,2.1917,2.1919,2.1934,0,0,0,0,0,0,2.147,2.1485,2.1505,2.1545,2.156,2.1635,2.1616,2.1621,2.1645,2.1644,2.1685,2.1691,2.1705,2.1763,2.1775,2.1802,2.1762,2.1912,2.1915,2.1919,2.1931,2.1937,2.1941,0,0,0,0,0,2.1465,2.1506,2.1506,2.1518,2.1586,2.1636,2.1645,2.166,2.1647,2.1669,2.1691,2.169,2.1791,2.1769,2.1781,2.181,2.191,2.1914,2.1918,2.1929,2.1936,2.1941,0,0,0,0,0,0,2.1468,2.1511,2.1512,2.1566,2.1598,2.1636,2.1664,2.1666,2.1702,2.17,2.1717,2.1727,2.1781,2.1801,2.1775,2.1869,2.185,2.1856,2.1854,2.186,2.1865,2.186,2.1765,0,0,0,0,0,2.1475,2.1511,2.1547,2.1592,2.1608,2.1633,2.1656,2.1665,2.1698,2.1712,2.1738,2.1771,2.1811,2.1837,2.1875,2.1934,2.1945,2.1961,2.1966,2.197,2.1976,2.2012,2.202,2.1933,2.1933,2.1933,0,0,2.149,2.1518,2.154,2.1594,2.1619,2.1658,2.1644,2.1685,2.1715,2.1718,2.1771,2.1792,2.183,2.1888,2.1915,2.1907,2.2002,2.1975,2.1978,2.1981,2.2017,2.2025,2.2033,2.1936,2.1935,2.1935,0,0,2.1537,2.1561,2.1602,2.1629,2.1667,2.1685,2.1695,2.1734,2.1748,2.1802,2.1806,2.1842,2.1909,2.1938,2.1961,2.2023,2.2025,2.2035,2.2062,2.2097,2.2104,2.2111,2.2135,2.2144,2.2041,2.2041,2.2041,0,2.1551,2.1608,2.1623,2.1665,2.169,2.1696,2.1739,2.1764,2.1814,2.1832,2.1821,2.1908,2.1934,2.2001,2.2016,2.2034,2.2048,2.2031,2.2102,2.2108,2.2114,2.2138,2.2147,2.2042,2.2042,2.2042,2.2042,0,2.1625,2.1665,2.1694,2.1743,2.1771,2.1813,2.1837,2.1864,2.1872,2.1891,2.1947,2.1979,2.2026,2.2042,2.2049,2.2111,2.2105,2.2098,2.2079,2.2124,2.2147,2.2156,2.2044,2.2043,2.2043,2.2043,0,0,2.1674,2.1733,2.1743,2.1767,2.1811,2.1844,2.1888,2.1933,2.1958,2.1993,2.2032,2.209,2.2086,2.2112,2.2123,2.2154,2.2205,2.2144,2.2146,2.2156,2.2278,2.2284,2.2294,2.2206,2.2208,2.221,2.2276,0,2.1728,2.1805,2.1822,2.189,2.1929,2.1936,2.1976,2.2008,2.2028,2.2066,2.2088,2.213,2.2119,2.2136,2.2167,2.2192,2.223,2.2188,2.2245,2.2247,2.2236,2.2306,2.2311,2.2372,2.2285,2.2286,2.2287,0,2.18,2.1838,2.1909,2.1952,2.1969,2.2004,2.2049,2.2084,2.2123,2.2135,2.2167,2.2176,2.2225,2.2204,2.2273,2.2244,2.2269,2.2285,2.2288,2.2295,2.227,2.2316,2.2391,2.2401,2.2301,2.23,2.2299,0,2.1832,2.19,2.1953,2.1973,2.2023,2.2048,2.207,2.2108,2.2135,2.2175,2.2194,2.2239,2.2264,2.23,2.2321,2.2303,2.239,2.237,2.2404,2.2404,2.2422,2.2421,2.2504,2.2436,2.2436,2.2436,2.2435,0,2.189,2.1935,2.1968,2.2001,2.2052,2.2072,2.2122,2.2145,2.2179,2.2218,2.2227,2.2263,2.2289,2.233,2.2348,2.2404,2.2415,2.2428,2.2433,2.2428,2.2427,2.2445,2.2442,2.2438,2.2438,2.2437,2.2437,0,2.1934,2.1958,2.2017,2.2061,2.2073,2.2109,2.2147,2.2181,2.2202,2.2251,2.2264,2.2297,2.2346,2.2372,2.2433,2.2445,2.2509,2.251,2.2496,2.2498,2.2531,2.2529,2.2631,2.2646,2.2566,2.2567,2.2567,0,2.1971,2.2005,2.2053,2.208,2.2103,2.2145,2.2174,2.2196,2.2226,2.2275,2.2303,2.2353,2.2393,2.2472,2.2503,2.2551,2.2554,2.2587,2.2561,2.2557,2.2557,2.2556,2.2561,2.2591,2.2592,2.2593,2.2593,0,2.2033,2.2044,2.2085,2.213,2.2164,2.2201,2.2238,2.226,2.2288,2.2322,2.2372,2.2404,2.2468,2.2518,2.2569,2.2594,2.26,2.2601,2.2612,2.2608,2.26,2.2607,2.251,2.2599,2.2598,2.2598,2.2597,2.2597,2.2076,2.2108,2.2148,2.2194,2.2224,2.2259,2.2293,2.232,2.2362,2.2415,2.2426,2.248,2.2522,2.2591,2.2618,2.2662,2.2655,2.267,2.2674,2.2678,2.2681,2.2592,2.2671,2.2671,2.2671,2.2671,2.2671,0,2.2141,2.2168,2.221,2.2261,2.2298,2.23,2.2342,2.2373,2.242,2.2458,2.2499,2.2559,2.2609,2.2645,2.2696,2.2725,2.2729,2.2738,2.2737,2.2743,2.2683,2.2669,2.2734,2.2734,2.2734,2.2734,2.2734,2.2734,2.218,2.2235,2.2252,2.2324,2.235,2.2403,2.2427,2.2461,2.2492,2.2558,2.2599,2.2622,2.2661,2.2715,2.2762,2.2772,2.2791,2.28,2.281,2.2753,2.2747,2.274,2.2728,2.2804,2.2804,2.2867,2.2868,2.2868]},{"header":{"parameterUnit":"m.s-1","parameterCategory":1,"la1":30.2991,"la2":30.254,"lo1":-89.0895,"lo2":-89.0444,"dy":0.0017,"dx":0.0017,"nx":28,"ny":28,"refTime":"2025-11-25T09:00:00:Z","depth":0,"parameterNumber":3,"parameterNumberName":"V-component_of_WINDS"},"data":[0,0,0,0,0,0,0,0,0,0,0,0,0,0,0,0,0,0,0,0,0,0,0,0,0,0,0,0,0,0,0,0,0,0,0,0,0,0,0,0,0,0,0,0,0,0,0,0,0,0,0,0,0,0,0,0,0,0,-3.8534,-3.8534,0,-3.8535,-3.8535,-3.8535,-3.8514,-3.8513,-3.8513,-3.8512,-3.8512,-3.8513,-3.8513,0,0,0,0,0,0,0,0,0,0,0,0,0,-3.8516,-3.8517,-3.8534,-3.8534,-3.8534,-3.8535,-3.8535,-3.8535,-3.8514,-3.8513,-3.8513,-3.8512,-3.8512,-3.8513,-3.8514,0,0,0,0,0,0,0,0,0,0,0,0,0,-3.8521,-3.8517,-3.8534,-3.8524,-3.8523,-3.8535,-3.8535,-3.8535,-3.8514,-3.8513,-3.8513,-3.8512,-3.8512,-3.8513,-3.8514,-3.8535,0,0,-3.8516,-3.8516,0,0,0,0,0,0,0,0,-3.8521,-3.8522,-3.8526,-3.8525,-3.8524,-3.8523,-3.8528,-3.8535,-3.8514,-3.8518,-3.8512,-3.8511,-3.8517,-3.8517,-3.8519,-3.8535,-3.8535,-3.8516,-3.8516,-3.8517,-3.8517,0,0,0,0,0,0,0,-3.852,-3.8522,-3.8534,-3.8526,-3.8525,-3.852,-3.8519,-3.8529,-3.8522,-3.8517,-3.8516,-3.8516,-3.8516,-3.8518,-3.8519,-3.8535,-3.8516,-3.8517,-3.8517,-3.8517,-3.8568,-3.8569,0,0,0,0,0,0,-3.8522,-3.8521,-3.8534,-3.8534,-3.852,-3.8521,-3.852,-3.8524,-3.8522,-3.852,-3.8517,-3.8515,-3.8517,-3.8518,-3.8519,-3.8543,-3.8517,-3.8518,-3.8518,-3.8567,-3.8568,-3.8569,0,0,0,0,0,0,-3.8521,-3.8523,-3.8534,-3.8528,-3.8529,-3.8522,-3.8526,-3.8525,-3.8527,-3.8521,-3.852,-3.852,-3.8517,-3.8518,-3.8531,-3.8543,-3.8518,-3.8519,-3.8566,-3.8567,-3.8568,-3.8592,0,0,0,0,0,0,-3.8521,-3.8523,-3.8531,-3.8528,-3.8529,-3.8546,-3.8527,-3.8525,-3.8528,-3.8526,-3.8524,-3.8523,-3.8516,-3.853,-3.8532,-3.8543,-3.8519,-3.8565,-3.8566,-3.8568,-3.859,-3.8594,-3.8597,0,0,0,0,0,-3.852,-3.8537,-3.8531,-3.8533,-3.8539,-3.8547,-3.8548,-3.854,-3.8529,-3.8537,-3.8534,-3.8523,-3.8541,-3.8531,-3.8533,-3.8545,-3.8564,-3.8566,-3.8568,-3.8588,-3.8593,-3.8597,0,0,0,0,0,0,-3.8541,-3.8537,-3.853,-3.8546,-3.8547,-3.8544,-3.8553,-3.8545,-3.8549,-3.8546,-3.8536,-3.8536,-3.8551,-3.8549,-3.8538,-3.8566,-3.8551,-3.8553,-3.8566,-3.857,-3.8574,-3.8573,-3.852,0,0,0,0,0,-3.8548,-3.8555,-3.8551,-3.8566,-3.8567,-3.856,-3.8563,-3.8557,-3.8558,-3.8558,-3.8555,-3.8556,-3.8562,-3.8566,-3.8571,-3.859,-3.8589,-3.8599,-3.8603,-3.8606,-3.8608,-3.8617,-3.8622,-3.8575,-3.8575,-3.8575,0,0,-3.8562,-3.856,-3.8565,-3.857,-3.857,-3.8578,-3.856,-3.8569,-3.8575,-3.8559,-3.8571,-3.857,-3.857,-3.8586,-3.8593,-3.8585,-3.862,-3.8608,-3.8611,-3.8611,-3.862,-3.8624,-3.8628,-3.8577,-3.8576,-3.8576,0,0,-3.8591,-3.859,-3.8603,-3.8603,-3.8603,-3.8599,-3.8602,-3.86,-3.8598,-3.861,-3.8598,-3.8605,-3.8616,-3.8616,-3.8618,-3.8648,-3.8638,-3.865,-3.8668,-3.8678,-3.8681,-3.8685,-3.8695,-3.8699,-3.8652,-3.8652,-3.8652,0,-3.8607,-3.8619,-3.861,-3.862,-3.8622,-3.8609,-3.8621,-3.8622,-3.8624,-3.8626,-3.8618,-3.8631,-3.863,-3.8646,-3.8653,-3.8655,-3.8658,-3.865,-3.8682,-3.8685,-3.8688,-3.8697,-3.8701,-3.8654,-3.8653,-3.8653,-3.8653,0,-3.8639,-3.8647,-3.8657,-3.866,-3.8664,-3.8675,-3.8668,-3.8673,-3.8666,-3.8663,-3.8676,-3.8674,-3.8679,-3.8683,-3.8676,-3.8698,-3.8693,-3.8683,-3.8668,-3.8693,-3.8702,-3.8706,-3.8656,-3.8655,-3.8655,-3.8654,0,0,-3.8681,-3.8679,-3.8682,-3.8683,-3.8683,-3.8689,-3.87,-3.8704,-3.8709,-3.8711,-3.8719,-3.8729,-3.872,-3.8722,-3.8716,-3.8724,-3.8748,-3.8714,-3.8714,-3.872,-3.8771,-3.8778,-3.8782,-3.8742,-3.8743,-3.8743,-3.8771,0,-3.8708,-3.8726,-3.8719,-3.8738,-3.8745,-3.8733,-3.8742,-3.8743,-3.874,-3.8746,-3.8743,-3.8749,-3.8737,-3.8739,-3.8747,-3.8743,-3.8758,-3.8741,-3.875,-3.875,-3.8749,-3.8787,-3.8794,-3.882,-3.8774,-3.8775,-3.8775,0,-3.8742,-3.8746,-3.8765,-3.8764,-3.8767,-3.8775,-3.8779,-3.8785,-3.8786,-3.8783,-3.8786,-3.8778,-3.8788,-3.8774,-3.8788,-3.8777,-3.878,-3.8779,-3.878,-3.878,-3.8764,-3.8787,-3.8829,-3.8832,-3.8781,-3.8781,-3.878,0,-3.877,-3.878,-3.8793,-3.8794,-3.8793,-3.8799,-3.8799,-3.8799,-3.8802,-3.8806,-3.8808,-3.8813,-3.8815,-3.8819,-3.8813,-3.8803,-3.8828,-3.8813,-3.8826,-3.8826,-3.8831,-3.883,-3.8872,-3.8834,-3.8834,-3.8834,-3.8834,0,-3.8801,-3.8813,-3.8805,-3.8813,-3.8826,-3.8818,-3.8832,-3.883,-3.8831,-3.8838,-3.8828,-3.8835,-3.8826,-3.8833,-3.8828,-3.884,-3.8842,-3.884,-3.8838,-3.884,-3.884,-3.8841,-3.8839,-3.8835,-3.8835,-3.8834,-3.8834,0,-3.8834,-3.8829,-3.8842,-3.884,-3.884,-3.885,-3.8848,-3.8855,-3.8852,-3.8862,-3.8863,-3.8858,-3.8865,-3.8859,-3.8866,-3.8863,-3.8879,-3.8875,-3.8879,-3.8878,-3.889,-3.8889,-3.8934,-3.8939,-3.8898,-3.8899,-3.8899,0,-3.8854,-3.8863,-3.8862,-3.8866,-3.8867,-3.8874,-3.8877,-3.887,-3.8874,-3.8876,-3.8883,-3.8889,-3.8893,-3.8905,-3.8902,-3.8907,-3.8903,-3.8919,-3.8904,-3.8906,-3.8903,-3.8902,-3.8903,-3.8921,-3.8922,-3.8922,-3.8922,0,-3.889,-3.8887,-3.8892,-3.8897,-3.8901,-3.8905,-3.8907,-3.8911,-3.8904,-3.8909,-3.8916,-3.8919,-3.8927,-3.8933,-3.8937,-3.8937,-3.8928,-3.8927,-3.893,-3.8932,-3.8934,-3.8933,-3.8886,-3.8926,-3.8926,-3.8925,-3.8925,-3.8925,-3.8916,-3.8924,-3.8924,-3.8931,-3.8932,-3.8935,-3.8941,-3.8939,-3.8945,-3.895,-3.8945,-3.8954,-3.8955,-3.896,-3.896,-3.8967,-3.896,-3.8965,-3.8966,-3.8967,-3.8969,-3.8933,-3.8968,-3.8968,-3.8967,-3.8967,-3.8967,0,-3.8951,-3.8951,-3.8957,-3.8961,-3.8966,-3.8958,-3.8961,-3.8965,-3.8973,-3.8974,-3.8979,-3.8987,-3.8993,-3.8991,-3.8996,-3.9002,-3.8998,-3.9003,-3.9003,-3.9003,-3.8975,-3.8971,-3.9006,-3.9006,-3.9006,-3.9006,-3.9006,-3.9006,-3.8969,-3.8982,-3.8979,-3.8992,-3.8992,-3.9,-3.9002,-3.9004,-3.9006,-3.9015,-3.902,-3.9019,-3.9019,-3.9024,-3.9029,-3.9028,-3.9031,-3.9037,-3.9035,-3.9009,-3.9005,-3.9001,-3.8998,-3.9038,-3.9038,-3.9062,-3.9063,-3.9063]}]]